McAlester, OK

12:19 PM CST on December 04, 2016 (GMT -0600)
McAlester Regional

Weather History for KMLC - November, 2012

Change the Weather History Date:

Saturday, November 3, 2012

  Actual Average Record
Temperature  
Mean Temperature 61 °F -  
Max Temperature 70 °F 65 °F 84 °F (1978)
Min Temperature 52 °F 41 °F 18 °F (1991)
Degree Days  
Heating Degree Days 4    
Growing Degree Days 11 (Base 50)    
Moisture  
Dew Point 42 °F    
Average Humidity 52    
Maximum Humidity 81    
Minimum Humidity 31    
Precipitation  
Precipitation 0.00 in - - ()
Sea Level Pressure  
Sea Level Pressure 30.06 in    
Wind  
Wind Speed 7 mph (North)    
Max Wind Speed 13 mph    
Max Gust Speed 17 mph    
Visibility 10 miles    
Events      
Averages and records for this station are not official NWS values.
T = Trace of Precipitation, MM = Missing Value Source: NWS Daily Summary

Daily Weather History Graph

Daily Weather History Graph

Search for Another Location

Airport or City:

Trip Planner

Search our weather history database for the weather conditions in past years. The results will help you decide how hot, cold, wet, or windy it might be!

Date:

Astronomy

Nov. 03, 2012 Rise Set
Actual Time 7:46 AM CDT 6:26 PM CDT
Civil Twilight 7:20 AM CDT 6:52 PM CDT
Nautical Twilight 6:50 AM CDT 7:22 PM CDT
Astronomical Twilight 6:20 AM CDT 7:52 PM CDT
Moon 10:12 PM CDT (11/3) 11:47 AM CDT (11/3)
Length of Visible Light 11h 32m
Length of Day
10h 40m
Waning Gibbous, 80% of the Moon is Illuminated
Nov 3
Waning Gibbous
Nov 6
Last Quarter
Nov 13
New
Nov 20
First Quarter
Nov 28
Full

Hourly Weather History & Observations

Time (CDT) Temp. Dew Point Humidity Pressure Visibility Wind Dir Wind Speed Gust Speed Precip Events Conditions
12:53 AM 70.0 °F 53.1 °F 55% 29.91 in 10.0 mi South 6.9 mph - N/A   Clear
1:53 AM 64.9 °F 53.1 °F 65% 29.93 in 10.0 mi South 6.9 mph - N/A   Partly Cloudy
2:53 AM 66.9 °F 54.0 °F 63% 29.92 in 10.0 mi South 8.1 mph - N/A   Clear
3:53 AM 62.1 °F 54.0 °F 75% 29.95 in 10.0 mi West 4.6 mph - N/A   Partly Cloudy
4:53 AM 59.0 °F 53.1 °F 81% 29.96 in 10.0 mi SSW 4.6 mph - N/A   Clear
5:53 AM 60.1 °F 48.9 °F 67% 30.01 in 10.0 mi NNW 3.5 mph - N/A   Clear
6:53 AM 57.0 °F 46.0 °F 67% 30.03 in 10.0 mi NNW 5.8 mph - N/A   Clear
7:53 AM 55.9 °F 45.0 °F 67% 30.06 in 10.0 mi North 5.8 mph - N/A   Scattered Clouds
8:53 AM 57.0 °F 44.1 °F 62% 30.09 in 10.0 mi North 10.4 mph - N/A   Partly Cloudy
9:53 AM 59.0 °F 39.9 °F 49% 30.11 in 10.0 mi North 12.7 mph - N/A   Partly Cloudy
10:53 AM 62.1 °F 39.9 °F 44% 30.12 in 10.0 mi North 9.2 mph - N/A   Partly Cloudy
11:53 AM 63.0 °F 37.9 °F 40% 30.12 in 10.0 mi NNE 10.4 mph - N/A   Partly Cloudy
12:53 PM 66.0 °F 37.9 °F 36% 30.10 in 10.0 mi NE 8.1 mph - N/A   Scattered Clouds
1:53 PM 66.9 °F 37.0 °F 33% 30.08 in 10.0 mi NNE 10.4 mph - N/A   Partly Cloudy
2:53 PM 68.0 °F 37.0 °F 32% 30.06 in 10.0 mi North 10.4 mph - N/A   Clear
3:53 PM 69.1 °F 37.0 °F 31% 30.06 in 10.0 mi NNE 12.7 mph 17.3 mph N/A   Clear
4:53 PM 68.0 °F 37.0 °F 32% 30.07 in 10.0 mi North 12.7 mph - N/A   Clear
5:53 PM 64.9 °F 36.0 °F 34% 30.07 in 10.0 mi NNE 9.2 mph 17.3 mph N/A   Mostly Cloudy
6:53 PM 61.0 °F 37.0 °F 41% 30.10 in 10.0 mi NE 4.6 mph - N/A   Scattered Clouds
7:53 PM 57.0 °F 37.0 °F 47% 30.12 in 10.0 mi North 6.9 mph - N/A   Partly Cloudy
8:53 PM 55.9 °F 37.0 °F 49% 30.12 in 10.0 mi Calm Calm - N/A   Clear
9:53 PM 54.0 °F 37.9 °F 55% 30.13 in 10.0 mi NNE 3.5 mph - N/A   Partly Cloudy
10:53 PM 52.0 °F 39.0 °F 61% 30.13 in 10.0 mi NNE 4.6 mph - N/A   Scattered Clouds
11:53 PM 53.1 °F 39.9 °F 61% 30.13 in 10.0 mi NNE 5.8 mph - N/A   Partly Cloudy